CZ-11 DEB, 66377

Orbit data source: Space-Track

CZ-11 DEB, 66377 is space debris in LEO originally from a launch on Sat, 08 Nov 2025 UTC launched from the Yellow Sea Launch Area, China (YSLA). Debris objects in space refer to the collection of defunct objects orbiting the Earth. Examples of debris include non-operational satellites, rocket bodies, and fragments generated from explosions, collisions, or faulty payload assembly.

Loading next visibility...
Identifier
66377, 2025-255B
Orbit
LEO
Country
Flag of CNCN / PRC
Related business
Manufacturer
CALT
Mission
Spacecraft
Bus & Motor
CZ-11-4, Unknown motor
Mass
500 kg wet, 500 kg dry
Launch date (UTC)
2025-11-08 (7 months ago)
Launch vehicle
Unknown
Launch site
Yellow Sea Launch Area, China (YSLA)
Object type
Payload
Rocket body
Debris
Shape & HBR
Cyl, 1.1 m
Radar Cross Section
2.651 m², Medium (>0.1 m² and < 1m²)

Expand to show TLE details & history
Last TLE update: 1 day ago

TLE from 1 day ago
0 CZ-11 DEB
1 66377U 25255B   26170.70427803  .00074866  00000-0  72203-3 0  9993
2 66377  52.9902 344.6588 0009011 283.3639  76.6370 15.65803449 34596
Epoch: 2026-06-19T16:54Z
TLE epoch observation values (Epoch: 2026-06-19T16:54:09.621Z)
Latitude
-0.00005°
Longitude
-176.81076°
Altitude
370.424 km
Speed
7.689 km/s
True Right ascension
22h 58m 38s
True Declination
0° 00' 00"
Sunlit
Object was in daylight at epoch
Visualization orbit readout
Latitude
Unknown
Longitude
Unknown
Altitude
Unknown
Speed
Unknown
Apparent Right ascension
Unknown
Apparent Declination
Unknown
Sunlit
N/A
Visualization observer readout
Local Sidereal Time
07:17:54
Azimuth
Unknown
Elevation
Unknown
Doppler factor
Unknown
Orbital elements
Apogee altitude
377.299 km
Perigee altitude
365.135 km
Semi-major axis
6,749.354 km
Eccentricity
0.0009
Inclination
52.9902°
RAAN
344.6588°
Arg. of periapsis
283.3639°
True anomaly
76.73749°
Mean anomaly
76.637°
Eccentric anomaly
76.68724°
Mean motion
3.91426 °/min
Orbital period
91.97 mins
BSTAR
0.00072203
Loading maneuver chart data...
Computing Atmospheric mass density...
Loading historical data...
Loading historical data...
Loading historical data...
Loading historical data...
Loading historical data...
Loading historical data...
Loading historical data...
Other satellites on launch #255 in the year 2025 (2025-11-08 UTC)

Documentation

Showing up to 5 results
|